Year,Month,Day,Hour,Minute,Value (Times are PST for insolation in W/m^2)
2016,07,02,00,00,0.00
2016,07,02,00,01,0.00
2016,07,02,00,02,0.00
2016,07,02,00,03,0.00
2016,07,02,00,04,0.00
2016,07,02,00,05,0.00
2016,07,02,00,06,0.00
2016,07,02,00,07,0.00
2016,07,02,00,08,0.00
2016,07,02,00,09,0.00
2016,07,02,00,10,0.00
2016,07,02,00,11,0.00
2016,07,02,00,12,0.00
2016,07,02,00,13,0.00
2016,07,02,00,14,0.00
2016,07,02,00,15,0.00
2016,07,02,00,16,0.00
2016,07,02,00,17,0.00
2016,07,02,00,18,0.00
2016,07,02,00,19,0.00
2016,07,02,00,20,0.00
2016,07,02,00,21,0.00
2016,07,02,00,22,0.00
2016,07,02,00,23,0.00
2016,07,02,00,24,0.00
2016,07,02,00,25,0.00
2016,07,02,00,26,0.00
2016,07,02,00,27,0.00
2016,07,02,00,28,0.00
2016,07,02,00,29,0.00
2016,07,02,00,30,0.00
2016,07,02,00,31,0.00
2016,07,02,00,32,0.00
2016,07,02,00,33,0.00
2016,07,02,00,34,0.00
2016,07,02,00,35,0.00
2016,07,02,00,36,0.00
2016,07,02,00,37,0.00
2016,07,02,00,38,0.00
2016,07,02,00,39,0.00
2016,07,02,00,40,0.00
2016,07,02,00,41,0.00
2016,07,02,00,42,0.00
2016,07,02,00,43,0.00
2016,07,02,00,44,0.00
2016,07,02,00,45,0.00
2016,07,02,00,46,0.00
2016,07,02,00,47,0.00
2016,07,02,00,48,0.00
2016,07,02,00,49,0.00
2016,07,02,00,50,0.00
2016,07,02,00,51,0.00
2016,07,02,00,52,0.00
2016,07,02,00,53,0.00
2016,07,02,00,54,0.00
2016,07,02,00,55,0.00
2016,07,02,00,56,0.00
2016,07,02,00,57,0.00
2016,07,02,00,58,0.00
2016,07,02,00,59,0.00
2016,07,02,01,00,0.00
2016,07,02,01,01,0.00
2016,07,02,01,02,0.00
2016,07,02,01,03,0.00
2016,07,02,01,04,0.00
2016,07,02,01,05,0.00
2016,07,02,01,06,0.00
2016,07,02,01,07,0.00
2016,07,02,01,08,0.00
2016,07,02,01,09,0.00
2016,07,02,01,10,0.00
2016,07,02,01,11,0.00
2016,07,02,01,12,0.00
2016,07,02,01,13,0.00
2016,07,02,01,14,0.00
2016,07,02,01,15,0.00
2016,07,02,01,16,0.00
2016,07,02,01,17,0.00
2016,07,02,01,18,0.00
2016,07,02,01,19,0.00
2016,07,02,01,20,0.00
2016,07,02,01,21,0.00
2016,07,02,01,22,0.00
2016,07,02,01,23,0.00
2016,07,02,01,24,0.00
2016,07,02,01,25,0.00
2016,07,02,01,26,0.00
2016,07,02,01,27,0.00
2016,07,02,01,28,0.00
2016,07,02,01,29,0.00
2016,07,02,01,30,0.00
2016,07,02,01,31,0.00
2016,07,02,01,32,0.00
2016,07,02,01,33,0.00
2016,07,02,01,34,0.00
2016,07,02,01,35,0.00
2016,07,02,01,36,0.00
2016,07,02,01,37,0.00
2016,07,02,01,38,0.00
2016,07,02,01,39,0.00
2016,07,02,01,40,0.00
2016,07,02,01,41,0.00
2016,07,02,01,42,0.00
2016,07,02,01,43,0.00
2016,07,02,01,44,0.00
2016,07,02,01,45,0.00
2016,07,02,01,46,0.00
2016,07,02,01,47,0.00
2016,07,02,01,48,0.00
2016,07,02,01,49,0.00
2016,07,02,01,50,0.00
2016,07,02,01,51,0.00
2016,07,02,01,52,0.00
2016,07,02,01,53,0.00
2016,07,02,01,54,0.00
2016,07,02,01,55,0.00
2016,07,02,01,56,0.00
2016,07,02,01,57,0.00
2016,07,02,01,58,0.00
2016,07,02,01,59,0.00
2016,07,02,02,00,0.00
2016,07,02,02,01,0.00
2016,07,02,02,02,0.00
2016,07,02,02,03,0.00
2016,07,02,02,04,0.00
2016,07,02,02,05,0.00
2016,07,02,02,06,0.00
2016,07,02,02,07,0.00
2016,07,02,02,08,0.00
2016,07,02,02,09,0.00
2016,07,02,02,10,0.00
2016,07,02,02,11,0.00
2016,07,02,02,12,0.00
2016,07,02,02,13,0.00
2016,07,02,02,14,0.00
2016,07,02,02,15,0.00
2016,07,02,02,16,0.00
2016,07,02,02,17,0.00
2016,07,02,02,18,0.00
2016,07,02,02,19,0.00
2016,07,02,02,20,0.00
2016,07,02,02,21,0.00
2016,07,02,02,22,0.00
2016,07,02,02,23,0.00
2016,07,02,02,24,0.00
2016,07,02,02,25,0.00
2016,07,02,02,26,0.00
2016,07,02,02,27,0.00
2016,07,02,02,28,0.00
2016,07,02,02,29,0.00
2016,07,02,02,30,0.00
2016,07,02,02,31,0.00
2016,07,02,02,32,0.00
2016,07,02,02,33,0.00
2016,07,02,02,34,0.00
2016,07,02,02,35,0.00
2016,07,02,02,36,0.00
2016,07,02,02,37,0.00
2016,07,02,02,38,0.00
2016,07,02,02,39,0.00
2016,07,02,02,40,0.00
2016,07,02,02,41,0.00
2016,07,02,02,42,0.00
2016,07,02,02,43,0.00
2016,07,02,02,44,0.00
2016,07,02,02,45,0.00
2016,07,02,02,46,0.00
2016,07,02,02,47,0.00
2016,07,02,02,48,0.00
2016,07,02,02,49,0.00
2016,07,02,02,50,0.00
2016,07,02,02,51,0.00
2016,07,02,02,52,0.00
2016,07,02,02,53,0.00
2016,07,02,02,54,0.00
2016,07,02,02,55,0.00
2016,07,02,02,56,0.00
2016,07,02,02,57,0.00
2016,07,02,02,58,0.00
2016,07,02,02,59,0.00
2016,07,02,03,00,0.00
2016,07,02,03,01,0.00
2016,07,02,03,02,0.00
2016,07,02,03,03,0.00
2016,07,02,03,04,0.00
2016,07,02,03,05,0.00
2016,07,02,03,06,0.00
2016,07,02,03,07,0.00
2016,07,02,03,08,0.00
2016,07,02,03,09,0.00
2016,07,02,03,10,0.00
2016,07,02,03,11,0.00
2016,07,02,03,12,0.00
2016,07,02,03,13,0.00
2016,07,02,03,14,0.00
2016,07,02,03,15,0.00
2016,07,02,03,16,0.00
2016,07,02,03,17,0.00
2016,07,02,03,18,0.00
2016,07,02,03,19,0.00
2016,07,02,03,20,0.00
2016,07,02,03,21,0.00
2016,07,02,03,22,0.00
2016,07,02,03,23,0.00
2016,07,02,03,24,0.00
2016,07,02,03,25,0.00
2016,07,02,03,26,0.00
2016,07,02,03,27,0.00
2016,07,02,03,28,0.00
2016,07,02,03,29,0.00
2016,07,02,03,30,0.00
2016,07,02,03,31,0.00
2016,07,02,03,32,0.00
2016,07,02,03,33,0.00
2016,07,02,03,34,0.00
2016,07,02,03,35,0.00
2016,07,02,03,36,0.00
2016,07,02,03,37,0.00
2016,07,02,03,38,0.00
2016,07,02,03,39,0.00
2016,07,02,03,40,0.00
2016,07,02,03,41,0.00
2016,07,02,03,42,0.00
2016,07,02,03,43,0.00
2016,07,02,03,44,0.00
2016,07,02,03,45,0.00
2016,07,02,03,46,0.00
2016,07,02,03,47,0.00
2016,07,02,03,48,0.00
2016,07,02,03,49,0.00
2016,07,02,03,50,0.00
2016,07,02,03,51,0.00
2016,07,02,03,52,0.00
2016,07,02,03,53,0.00
2016,07,02,03,54,0.00
2016,07,02,03,55,0.00
2016,07,02,03,56,0.00
2016,07,02,03,57,0.00
2016,07,02,03,58,0.00
2016,07,02,03,59,0.00
2016,07,02,04,00,0.00
2016,07,02,04,01,0.00
2016,07,02,04,02,0.00
2016,07,02,04,03,0.00
2016,07,02,04,04,0.00
2016,07,02,04,05,0.00
2016,07,02,04,06,0.00
2016,07,02,04,07,0.00
2016,07,02,04,08,0.00
2016,07,02,04,09,0.00
2016,07,02,04,10,0.00
2016,07,02,04,11,0.00
2016,07,02,04,12,0.00
2016,07,02,04,13,0.00
2016,07,02,04,14,0.00
2016,07,02,04,15,0.00
2016,07,02,04,16,0.00
2016,07,02,04,17,0.00
2016,07,02,04,18,0.00
2016,07,02,04,19,0.00
2016,07,02,04,20,0.00
2016,07,02,04,21,0.00
2016,07,02,04,22,0.00
2016,07,02,04,23,0.00
2016,07,02,04,24,0.00
2016,07,02,04,25,0.00
2016,07,02,04,26,0.00
2016,07,02,04,27,0.00
2016,07,02,04,28,0.00
2016,07,02,04,29,0.00
2016,07,02,04,30,0.00
2016,07,02,04,31,0.00
2016,07,02,04,32,0.00
2016,07,02,04,33,0.00
2016,07,02,04,34,0.00
2016,07,02,04,35,0.00
2016,07,02,04,36,0.00
2016,07,02,04,37,0.00
2016,07,02,04,38,0.00
2016,07,02,04,39,0.00
2016,07,02,04,40,0.00
2016,07,02,04,41,0.00
2016,07,02,04,42,0.00
2016,07,02,04,43,0.00
2016,07,02,04,44,0.00
2016,07,02,04,45,0.00
2016,07,02,04,46,0.00
2016,07,02,04,47,0.00
2016,07,02,04,48,0.00
2016,07,02,04,49,0.00
2016,07,02,04,50,0.00
2016,07,02,04,51,0.00
2016,07,02,04,52,0.00
2016,07,02,04,53,0.00
2016,07,02,04,54,0.00
2016,07,02,04,55,0.00
2016,07,02,04,56,0.00
2016,07,02,04,57,0.00
2016,07,02,04,58,0.00
2016,07,02,04,59,0.00
2016,07,02,05,00,0.00
2016,07,02,05,01,0.00
2016,07,02,05,02,0.00
2016,07,02,05,03,0.00
2016,07,02,05,04,0.00
2016,07,02,05,05,0.00
2016,07,02,05,06,0.00
2016,07,02,05,07,0.00
2016,07,02,05,08,0.00
2016,07,02,05,09,0.00
2016,07,02,05,10,0.00
2016,07,02,05,11,0.00
2016,07,02,05,12,0.00
2016,07,02,05,13,0.00
2016,07,02,05,14,0.00
2016,07,02,05,15,0.00
2016,07,02,05,16,0.00
2016,07,02,05,17,0.00
2016,07,02,05,18,0.00
2016,07,02,05,19,0.00
2016,07,02,05,20,0.00
2016,07,02,05,21,0.00
2016,07,02,05,22,0.00
2016,07,02,05,23,0.00
2016,07,02,05,24,0.00
2016,07,02,05,25,0.00
2016,07,02,05,26,0.00
2016,07,02,05,27,0.00
2016,07,02,05,28,0.00
2016,07,02,05,29,0.00
2016,07,02,05,30,0.00
2016,07,02,05,31,0.00
2016,07,02,05,32,0.00
2016,07,02,05,33,0.00
2016,07,02,05,34,0.00
2016,07,02,05,35,0.00
2016,07,02,05,36,2.10
2016,07,02,05,37,5.00
2016,07,02,05,38,5.00
2016,07,02,05,39,5.00
2016,07,02,05,40,5.00
2016,07,02,05,41,5.00
2016,07,02,05,42,5.00
2016,07,02,05,43,5.00
2016,07,02,05,44,6.60
2016,07,02,05,45,7.00
2016,07,02,05,46,5.30
2016,07,02,05,47,5.00
2016,07,02,05,48,5.00
2016,07,02,05,49,5.00
2016,07,02,05,50,5.00
2016,07,02,05,51,5.00
2016,07,02,05,52,5.00
2016,07,02,05,53,5.00
2016,07,02,05,54,5.00
2016,07,02,05,55,5.00
2016,07,02,05,56,5.00
2016,07,02,05,57,5.00
2016,07,02,05,58,5.00
2016,07,02,05,59,5.00
2016,07,02,06,00,5.00
2016,07,02,06,01,5.00
2016,07,02,06,02,6.20
2016,07,02,06,03,7.00
2016,07,02,06,04,7.00
2016,07,02,06,05,7.00
2016,07,02,06,06,7.00
2016,07,02,06,07,7.00
2016,07,02,06,08,8.50
2016,07,02,06,09,9.00
2016,07,02,06,10,9.00
2016,07,02,06,11,10.90
2016,07,02,06,12,11.00
2016,07,02,06,13,11.00
2016,07,02,06,14,11.10
2016,07,02,06,15,12.00
2016,07,02,06,16,12.40
2016,07,02,06,17,14.40
2016,07,02,06,18,16.90
2016,07,02,06,19,19.60
2016,07,02,06,20,21.70
2016,07,02,06,21,23.80
2016,07,02,06,22,26.40
2016,07,02,06,23,29.00
2016,07,02,06,24,31.60
2016,07,02,06,25,34.10
2016,07,02,06,26,37.40
2016,07,02,06,27,39.60
2016,07,02,06,28,41.30
2016,07,02,06,29,42.00
2016,07,02,06,30,43.50
2016,07,02,06,31,45.60
2016,07,02,06,32,46.80
2016,07,02,06,33,48.80
2016,07,02,06,34,49.00
2016,07,02,06,35,51.00
2016,07,02,06,36,51.10
2016,07,02,06,37,53.00
2016,07,02,06,38,53.20
2016,07,02,06,39,54.30
2016,07,02,06,40,56.50
2016,07,02,06,41,59.20
2016,07,02,06,42,62.90
2016,07,02,06,43,65.70
2016,07,02,06,44,67.00
2016,07,02,06,45,67.90
2016,07,02,06,46,69.00
2016,07,02,06,47,69.00
2016,07,02,06,48,67.90
2016,07,02,06,49,65.80
2016,07,02,06,50,65.00
2016,07,02,06,51,63.70
2016,07,02,06,52,63.00
2016,07,02,06,53,64.50
2016,07,02,06,54,66.60
2016,07,02,06,55,68.70
2016,07,02,06,56,71.70
2016,07,02,06,57,76.80
2016,07,02,06,58,81.00
2016,07,02,06,59,86.60
2016,07,02,07,00,98.40
2016,07,02,07,01,110.40
2016,07,02,07,02,108.20
2016,07,02,07,03,116.80
2016,07,02,07,04,127.70
2016,07,02,07,05,124.90
2016,07,02,07,06,120.70
2016,07,02,07,07,117.60
2016,07,02,07,08,112.70
2016,07,02,07,09,110.10
2016,07,02,07,10,107.00
2016,07,02,07,11,104.40
2016,07,02,07,12,101.60
2016,07,02,07,13,96.80
2016,07,02,07,14,90.20
2016,07,02,07,15,84.40
2016,07,02,07,16,79.80
2016,07,02,07,17,79.00
2016,07,02,07,18,82.40
2016,07,02,07,19,87.30
2016,07,02,07,20,90.80
2016,07,02,07,21,95.00
2016,07,02,07,22,98.10
2016,07,02,07,23,100.20
2016,07,02,07,24,102.00
2016,07,02,07,25,103.00
2016,07,02,07,26,107.80
2016,07,02,07,27,112.80
2016,07,02,07,28,120.10
2016,07,02,07,29,128.00
2016,07,02,07,30,136.80
2016,07,02,07,31,144.10
2016,07,02,07,32,149.40
2016,07,02,07,33,152.00
2016,07,02,07,34,153.00
2016,07,02,07,35,154.20
2016,07,02,07,36,155.00
2016,07,02,07,37,153.70
2016,07,02,07,38,154.50
2016,07,02,07,39,157.30
2016,07,02,07,40,161.90
2016,07,02,07,41,167.90
2016,07,02,07,42,177.10
2016,07,02,07,43,182.80
2016,07,02,07,44,190.00
2016,07,02,07,45,192.20
2016,07,02,07,46,198.20
2016,07,02,07,47,212.00
2016,07,02,07,48,229.00
2016,07,02,07,49,239.40
2016,07,02,07,50,278.40
2016,07,02,07,51,265.40
2016,07,02,07,52,248.80
2016,07,02,07,53,257.20
2016,07,02,07,54,275.00
2016,07,02,07,55,268.10
2016,07,02,07,56,265.40
2016,07,02,07,57,250.90
2016,07,02,07,58,252.90
2016,07,02,07,59,273.80
2016,07,02,08,00,285.00
2016,07,02,08,01,425.00
2016,07,02,08,02,496.00
2016,07,02,08,03,464.10
2016,07,02,08,04,386.10
2016,07,02,08,05,352.30
2016,07,02,08,06,351.90
2016,07,02,08,07,380.00
2016,07,02,08,08,394.90
2016,07,02,08,09,373.30
2016,07,02,08,10,368.40
2016,07,02,08,11,379.20
2016,07,02,08,12,395.50
2016,07,02,08,13,399.40
2016,07,02,08,14,372.30
2016,07,02,08,15,344.00
2016,07,02,08,16,338.20
2016,07,02,08,17,354.20
2016,07,02,08,18,343.00
2016,07,02,08,19,322.50
2016,07,02,08,20,293.80
2016,07,02,08,21,252.00
2016,07,02,08,22,219.10
2016,07,02,08,23,207.50
2016,07,02,08,24,203.10
2016,07,02,08,25,202.00
2016,07,02,08,26,209.20
2016,07,02,08,27,207.60
2016,07,02,08,28,207.00
2016,07,02,08,29,208.80
2016,07,02,08,30,204.20
2016,07,02,08,31,202.20
2016,07,02,08,32,206.50
2016,07,02,08,33,212.10
2016,07,02,08,34,219.10
2016,07,02,08,35,226.80
2016,07,02,08,36,237.40
2016,07,02,08,37,253.90
2016,07,02,08,38,266.70
2016,07,02,08,39,256.90
2016,07,02,08,40,253.30
2016,07,02,08,41,249.60
2016,07,02,08,42,245.90
2016,07,02,08,43,242.40
2016,07,02,08,44,238.60
2016,07,02,08,45,235.10
2016,07,02,08,46,235.40
2016,07,02,08,47,240.90
2016,07,02,08,48,248.20
2016,07,02,08,49,256.40
2016,07,02,08,50,265.60
2016,07,02,08,51,271.50
2016,07,02,08,52,278.60
2016,07,02,08,53,289.50
2016,07,02,08,54,309.50
2016,07,02,08,55,338.70
2016,07,02,08,56,343.60
2016,07,02,08,57,336.00
2016,07,02,08,58,334.50
2016,07,02,08,59,325.50
2016,07,02,09,00,310.60
2016,07,02,09,01,297.10
2016,07,02,09,02,287.20
2016,07,02,09,03,281.20
2016,07,02,09,04,279.90
2016,07,02,09,05,282.00
2016,07,02,09,06,285.30
2016,07,02,09,07,287.00
2016,07,02,09,08,287.00
2016,07,02,09,09,287.70
2016,07,02,09,10,288.00
2016,07,02,09,11,288.00
2016,07,02,09,12,287.20
2016,07,02,09,13,285.40
2016,07,02,09,14,285.00
2016,07,02,09,15,287.80
2016,07,02,09,16,295.00
2016,07,02,09,17,302.00
2016,07,02,09,18,301.70
2016,07,02,09,19,298.70
2016,07,02,09,20,296.60
2016,07,02,09,21,296.90
2016,07,02,09,22,315.70
2016,07,02,09,23,349.40
2016,07,02,09,24,352.70
2016,07,02,09,25,340.00
2016,07,02,09,26,338.00
2016,07,02,09,27,344.00
2016,07,02,09,28,362.60
2016,07,02,09,29,342.40
2016,07,02,09,30,326.20
2016,07,02,09,31,332.20
2016,07,02,09,32,344.40
2016,07,02,09,33,363.30
2016,07,02,09,34,402.00
2016,07,02,09,35,435.40
2016,07,02,09,36,484.40
2016,07,02,09,37,501.90
2016,07,02,09,38,503.00
2016,07,02,09,39,609.40
2016,07,02,09,40,600.80
2016,07,02,09,41,595.30
2016,07,02,09,42,588.70
2016,07,02,09,43,587.00
2016,07,02,09,44,588.10
2016,07,02,09,45,594.00
2016,07,02,09,46,600.30
2016,07,02,09,47,603.00
2016,07,02,09,48,601.40
2016,07,02,09,49,601.70
2016,07,02,09,50,605.50
2016,07,02,09,51,606.00
2016,07,02,09,52,605.40
2016,07,02,09,53,603.80
2016,07,02,09,54,606.20
2016,07,02,09,55,609.40
2016,07,02,09,56,612.10
2016,07,02,09,57,616.00
2016,07,02,09,58,620.20
2016,07,02,09,59,623.50
2016,07,02,10,00,625.70
2016,07,02,10,01,628.80
2016,07,02,10,02,634.70
2016,07,02,10,03,642.50
2016,07,02,10,04,654.10
2016,07,02,10,05,675.00
2016,07,02,10,06,687.40
2016,07,02,10,07,687.50
2016,07,02,10,08,682.50
2016,07,02,10,09,686.70
2016,07,02,10,10,694.10
2016,07,02,10,11,677.60
2016,07,02,10,12,607.20
2016,07,02,10,13,570.00
2016,07,02,10,14,585.00
2016,07,02,10,15,523.10
2016,07,02,10,16,535.00
2016,07,02,10,17,565.20
2016,07,02,10,18,504.30
2016,07,02,10,19,476.00
2016,07,02,10,20,476.00
2016,07,02,10,21,476.00
2016,07,02,10,22,706.30
2016,07,02,10,23,680.40
2016,07,02,10,24,673.00
2016,07,02,10,25,524.80
2016,07,02,10,26,599.20
2016,07,02,10,27,664.90
2016,07,02,10,28,673.00
2016,07,02,10,29,673.00
2016,07,02,10,30,673.00
2016,07,02,10,31,673.00
2016,07,02,10,32,645.90
2016,07,02,10,33,551.80
2016,07,02,10,34,503.00
2016,07,02,10,35,503.00
2016,07,02,10,36,503.00
2016,07,02,10,37,611.90
2016,07,02,10,38,715.80
2016,07,02,10,39,717.40
2016,07,02,10,40,676.00
2016,07,02,10,41,678.70
2016,07,02,10,42,705.80
2016,07,02,10,43,728.40
2016,07,02,10,44,750.70
2016,07,02,10,45,754.00
2016,07,02,10,46,728.30
2016,07,02,10,47,730.70
2016,07,02,10,48,747.00
2016,07,02,10,49,767.20
2016,07,02,10,50,752.00
2016,07,02,10,51,738.40
2016,07,02,10,52,658.10
2016,07,02,10,53,670.10
2016,07,02,10,54,701.80
2016,07,02,10,55,724.30
2016,07,02,10,56,719.90
2016,07,02,10,57,732.00
2016,07,02,10,58,717.30
2016,07,02,10,59,701.00
2016,07,02,11,00,659.60
2016,07,02,11,01,625.80
2016,07,02,11,02,610.40
2016,07,02,11,03,619.40
2016,07,02,11,04,640.60
2016,07,02,11,05,655.60
2016,07,02,11,06,711.20
2016,07,02,11,07,747.40
2016,07,02,11,08,791.10
2016,07,02,11,09,823.20
2016,07,02,11,10,845.00
2016,07,02,11,11,805.00
2016,07,02,11,12,766.00
2016,07,02,11,13,786.90
2016,07,02,11,14,794.10
2016,07,02,11,15,789.00
2016,07,02,11,16,762.30
2016,07,02,11,17,674.90
2016,07,02,11,18,638.40
2016,07,02,11,19,576.00
2016,07,02,11,20,587.70
2016,07,02,11,21,588.10
2016,07,02,11,22,587.00
2016,07,02,11,23,547.40
2016,07,02,11,24,566.10
2016,07,02,11,25,612.00
2016,07,02,11,26,687.00
2016,07,02,11,27,755.20
2016,07,02,11,28,765.00
2016,07,02,11,29,756.80
2016,07,02,11,30,762.80
2016,07,02,11,31,765.00
2016,07,02,11,32,765.00
2016,07,02,11,33,766.00
2016,07,02,11,34,785.00
2016,07,02,11,35,705.80
2016,07,02,11,36,667.70
2016,07,02,11,37,700.80
2016,07,02,11,38,652.00
2016,07,02,11,39,676.80
2016,07,02,11,40,717.80
2016,07,02,11,41,726.00
2016,07,02,11,42,744.50
2016,07,02,11,43,757.80
2016,07,02,11,44,707.60
2016,07,02,11,45,658.00
2016,07,02,11,46,644.10
2016,07,02,11,47,669.70
2016,07,02,11,48,680.00
2016,07,02,11,49,680.00
2016,07,02,11,50,652.70
2016,07,02,11,51,638.00
2016,07,02,11,52,782.80
2016,07,02,11,53,814.80
2016,07,02,11,54,846.90
2016,07,02,11,55,851.20
2016,07,02,11,56,851.00
2016,07,02,11,57,852.90
2016,07,02,11,58,843.90
2016,07,02,11,59,841.80
2016,07,02,12,00,839.70
2016,07,02,12,01,837.80
2016,07,02,12,02,835.20
2016,07,02,12,03,830.00
2016,07,02,12,04,837.40
2016,07,02,12,05,856.00
2016,07,02,12,06,865.80
2016,07,02,12,07,897.70
2016,07,02,12,08,916.00
2016,07,02,12,09,916.00
2016,07,02,12,10,916.00
2016,07,02,12,11,917.80
2016,07,02,12,12,944.80
2016,07,02,12,13,926.20
2016,07,02,12,14,923.10
2016,07,02,12,15,882.80
2016,07,02,12,16,893.60
2016,07,02,12,17,943.70
2016,07,02,12,18,951.00
2016,07,02,12,19,361.70
2016,07,02,12,20,392.60
2016,07,02,12,21,416.60
2016,07,02,12,22,448.00
2016,07,02,12,23,448.00
2016,07,02,12,24,448.00
2016,07,02,12,25,540.80
2016,07,02,12,26,912.00
2016,07,02,12,27,870.90
2016,07,02,12,28,775.00
2016,07,02,12,29,838.60
2016,07,02,12,30,942.00
2016,07,02,12,31,887.70
2016,07,02,12,32,828.00
2016,07,02,12,33,828.00
2016,07,02,12,34,824.00
2016,07,02,12,35,821.00
2016,07,02,12,36,897.30
2016,07,02,12,37,957.80
2016,07,02,12,38,967.00
2016,07,02,12,39,967.00
2016,07,02,12,40,967.00
2016,07,02,12,41,967.00
2016,07,02,12,42,481.00
2016,07,02,12,43,410.80
2016,07,02,12,44,480.70
2016,07,02,12,45,570.00
2016,07,02,12,46,570.00
2016,07,02,12,47,570.00
2016,07,02,12,48,535.20
2016,07,02,12,49,446.20
2016,07,02,12,50,477.40
2016,07,02,12,51,445.90
2016,07,02,12,52,455.00
2016,07,02,12,53,455.00
2016,07,02,12,54,448.70
2016,07,02,12,55,475.50
2016,07,02,12,56,523.90
2016,07,02,12,57,529.20
2016,07,02,12,58,500.60
2016,07,02,12,59,485.00
2016,07,02,13,00,474.70
2016,07,02,13,01,447.00
2016,07,02,13,02,402.60
2016,07,02,13,03,366.60
2016,07,02,13,04,387.10
2016,07,02,13,05,356.70
2016,07,02,13,06,356.80
2016,07,02,13,07,375.50
2016,07,02,13,08,403.30
2016,07,02,13,09,411.60
2016,07,02,13,10,445.00
2016,07,02,13,11,491.50
2016,07,02,13,12,666.00
2016,07,02,13,13,736.20
2016,07,02,13,14,918.60
2016,07,02,13,15,972.70
2016,07,02,13,16,990.40
2016,07,02,13,17,1019.40
2016,07,02,13,18,1051.00
2016,07,02,13,19,1051.00
2016,07,02,13,20,1022.00
2016,07,02,13,21,1005.00
2016,07,02,13,22,580.80
2016,07,02,13,23,399.00
2016,07,02,13,24,483.50
2016,07,02,13,25,506.00
2016,07,02,13,26,506.00
2016,07,02,13,27,488.00
2016,07,02,13,28,485.00
2016,07,02,13,29,1132.00
2016,07,02,13,30,1132.00
2016,07,02,13,31,1130.40
2016,07,02,13,32,1115.20
2016,07,02,13,33,1111.00
2016,07,02,13,34,999.60
2016,07,02,13,35,643.00
2016,07,02,13,36,643.00
2016,07,02,13,37,643.00
2016,07,02,13,38,643.00
2016,07,02,13,39,643.00
2016,07,02,13,40,643.00
2016,07,02,13,41,525.10
2016,07,02,13,42,422.10
2016,07,02,13,43,404.00
2016,07,02,13,44,395.60
2016,07,02,13,45,413.00
2016,07,02,13,46,446.40
2016,07,02,13,47,520.00
2016,07,02,13,48,460.00
2016,07,02,13,49,408.40
2016,07,02,13,50,399.40
2016,07,02,13,51,409.40
2016,07,02,13,52,397.60
2016,07,02,13,53,397.00
2016,07,02,13,54,397.00
2016,07,02,13,55,471.40
2016,07,02,13,56,1141.00
2016,07,02,13,57,1110.80
2016,07,02,13,58,1011.00
2016,07,02,13,59,1002.50
2016,07,02,14,00,1027.30
2016,07,02,14,01,985.20
2016,07,02,14,02,968.80
2016,07,02,14,03,971.50
2016,07,02,14,04,957.90
2016,07,02,14,05,952.00
2016,07,02,14,06,929.20
2016,07,02,14,07,885.70
2016,07,02,14,08,913.80
2016,07,02,14,09,947.60
2016,07,02,14,10,887.00
2016,07,02,14,11,910.70
2016,07,02,14,12,925.30
2016,07,02,14,13,961.10
2016,07,02,14,14,940.40
2016,07,02,14,15,921.90
2016,07,02,14,16,911.70
2016,07,02,14,17,904.00
2016,07,02,14,18,896.30
2016,07,02,14,19,904.50
2016,07,02,14,20,907.80
2016,07,02,14,21,920.00
2016,07,02,14,22,947.00
2016,07,02,14,23,947.00
2016,07,02,14,24,947.00
2016,07,02,14,25,947.00
2016,07,02,14,26,947.00
2016,07,02,14,27,947.00
2016,07,02,14,28,603.80
2016,07,02,14,29,289.90
2016,07,02,14,30,260.60
2016,07,02,14,31,273.00
2016,07,02,14,32,269.10
2016,07,02,14,33,264.00
2016,07,02,14,34,264.00
2016,07,02,14,35,399.40
2016,07,02,14,36,422.00
2016,07,02,14,37,422.00
2016,07,02,14,38,422.00
2016,07,02,14,39,449.90
2016,07,02,14,40,1007.20
2016,07,02,14,41,1009.00
2016,07,02,14,42,1009.00
2016,07,02,14,43,1009.00
2016,07,02,14,44,1009.00
2016,07,02,14,45,865.00
2016,07,02,14,46,529.00
2016,07,02,14,47,720.60
2016,07,02,14,48,1032.00
2016,07,02,14,49,1032.00
2016,07,02,14,50,1032.00
2016,07,02,14,51,1006.50
2016,07,02,14,52,988.00
2016,07,02,14,53,988.00
2016,07,02,14,54,777.40
2016,07,02,14,55,664.00
2016,07,02,14,56,617.50
2016,07,02,14,57,652.40
2016,07,02,14,58,679.40
2016,07,02,14,59,682.00
2016,07,02,15,00,682.00
2016,07,02,15,01,682.00
2016,07,02,15,02,682.00
2016,07,02,15,03,664.20
2016,07,02,15,04,510.50
2016,07,02,15,05,540.60
2016,07,02,15,06,496.50
2016,07,02,15,07,441.50
2016,07,02,15,08,440.90
2016,07,02,15,09,423.80
2016,07,02,15,10,397.40
2016,07,02,15,11,386.90
2016,07,02,15,12,374.50
2016,07,02,15,13,373.50
2016,07,02,15,14,408.80
2016,07,02,15,15,434.00
2016,07,02,15,16,451.50
2016,07,02,15,17,450.60
2016,07,02,15,18,448.50
2016,07,02,15,19,453.80
2016,07,02,15,20,510.20
2016,07,02,15,21,474.70
2016,07,02,15,22,535.70
2016,07,02,15,23,633.50
2016,07,02,15,24,643.00
2016,07,02,15,25,643.00
2016,07,02,15,26,643.00
2016,07,02,15,27,609.90
2016,07,02,15,28,405.80
2016,07,02,15,29,374.80
2016,07,02,15,30,359.50
2016,07,02,15,31,355.60
2016,07,02,15,32,360.10
2016,07,02,15,33,345.40
2016,07,02,15,34,330.00
2016,07,02,15,35,320.20
2016,07,02,15,36,310.30
2016,07,02,15,37,303.20
2016,07,02,15,38,298.70
2016,07,02,15,39,295.80
2016,07,02,15,40,293.00
2016,07,02,15,41,287.00
2016,07,02,15,42,267.80
2016,07,02,15,43,253.20
2016,07,02,15,44,246.80
2016,07,02,15,45,237.90
2016,07,02,15,46,230.70
2016,07,02,15,47,242.00
2016,07,02,15,48,275.90
2016,07,02,15,49,309.80
2016,07,02,15,50,294.20
2016,07,02,15,51,267.00
2016,07,02,15,52,263.20
2016,07,02,15,53,249.80
2016,07,02,15,54,254.50
2016,07,02,15,55,248.30
2016,07,02,15,56,243.40
2016,07,02,15,57,264.90
2016,07,02,15,58,291.50
2016,07,02,15,59,307.30
2016,07,02,16,00,291.50
2016,07,02,16,01,277.00
2016,07,02,16,02,308.90
2016,07,02,16,03,319.10
2016,07,02,16,04,300.60
2016,07,02,16,05,277.50
2016,07,02,16,06,259.90
2016,07,02,16,07,251.90
2016,07,02,16,08,271.70
2016,07,02,16,09,319.90
2016,07,02,16,10,384.90
2016,07,02,16,11,395.80
2016,07,02,16,12,370.90
2016,07,02,16,13,350.40
2016,07,02,16,14,342.00
2016,07,02,16,15,350.20
2016,07,02,16,16,366.20
2016,07,02,16,17,374.50
2016,07,02,16,18,402.10
2016,07,02,16,19,396.80
2016,07,02,16,20,367.60
2016,07,02,16,21,355.00
2016,07,02,16,22,341.00
2016,07,02,16,23,313.70
2016,07,02,16,24,298.60
2016,07,02,16,25,289.90
2016,07,02,16,26,275.00
2016,07,02,16,27,250.80
2016,07,02,16,28,222.40
2016,07,02,16,29,197.60
2016,07,02,16,30,181.10
2016,07,02,16,31,168.20
2016,07,02,16,32,158.90
2016,07,02,16,33,151.60
2016,07,02,16,34,155.80
2016,07,02,16,35,173.20
2016,07,02,16,36,195.40
2016,07,02,16,37,210.40
2016,07,02,16,38,215.00
2016,07,02,16,39,209.30
2016,07,02,16,40,200.90
2016,07,02,16,41,191.40
2016,07,02,16,42,192.20
2016,07,02,16,43,214.20
2016,07,02,16,44,247.40
2016,07,02,16,45,264.50
2016,07,02,16,46,274.50
2016,07,02,16,47,283.80
2016,07,02,16,48,307.10
2016,07,02,16,49,318.00
2016,07,02,16,50,318.00
2016,07,02,16,51,318.00
2016,07,02,16,52,318.00
2016,07,02,16,53,652.90
2016,07,02,16,54,674.20
2016,07,02,16,55,670.00
2016,07,02,16,56,298.50
2016,07,02,16,57,267.00
2016,07,02,16,58,268.20
2016,07,02,16,59,282.30
2016,07,02,17,00,308.80
2016,07,02,17,01,336.60
2016,07,02,17,02,333.20
2016,07,02,17,03,309.40
2016,07,02,17,04,284.50
2016,07,02,17,05,260.60
2016,07,02,17,06,251.00
2016,07,02,17,07,245.60
2016,07,02,17,08,236.50